Startpagina
METAR-TAF:

METAR-TAF

Vliegvelden :

Reims, Frankrijk

breedte: 49-12-31N, lengte: 004-09-24E, hoogte: 95 m

Actueel weer

Dit bericht is 39 minuten geleden gemaakt, om 20:30 UTC
Wind 15 kt uit het westzuidwesten
Temperatuur 6°C
Vochtigheid 81%
Druk 999 hPa
Zicht 10 km of meer

METAR: LFQA 162030Z AUTO 25015KT 9999 FEW039/// BKN049/// BKN058/// ///TCU 06/03 Q0999

Tijdstip: 22:09 (21:09 UTC)


TAF: ontbreekt

Waarnemingen en weersverwachtingen van meer dan 4000 vliegvelden (METAR en TAF).

De beschikbare stations zijn de gele en rode punten op de kaart.

Ga met uw muis naar het station om de naam te zien.

Klik dan om waarnemingen en weersverwachtingen te zien.

kaart wijzigen: klik op de groene knoppen met een zwart kruis om in te zoomen, op de groene knop met een streepje om uit te zoomen of op de groene pijlen voor aangrenzende kaarten.


METAR-TAF: